Location: ??
(35.4032°N, 139.3073°E)
Time: 12:30:22
(UTC+00:00)

Hubble Space Telescope - Visible Passes

Search period start: 23 June 2024 00:00
Search period end: 03 July 2024 00:00
Orbit: 510 x 514 km, 28.5° (Epoch: 22 June)

Date Brightness Start Highest point End Pass type
(mag) Time Alt. Az. Time Alt. Az. Time Alt. Az.
27 Jun 2.3 18:46:52 10° SW 18:49:56 21° SSE 18:53:01 10° ESE visible
28 Jun 2.1 18:28:35 15° SSW 18:30:43 23° SSE 18:33:54 10° ESE visible
29 Jun 2.0 18:10:19 21° SSW 18:11:30 24° S 18:14:45 10° ESE visible
30 Jun 1.9 17:52:05 25° S 17:52:16 25° S 17:55:36 10° ESE visible
01 Jul 2.1 17:33:53 24° SSE 17:33:53 24° SSE 17:36:24 10° ESE visible
02 Jul 2.6 17:15:44 18° SE 17:15:44 18° SE 17:17:12 10° ESE visible
02 Jul 1.8 18:50:33 10° WSW 18:53:58 27° S 18:57:21 10° SE visible
